When you browse on this site, cookies collect data to enhance your experience and personalize the content and advertising you see.
Visit our Privacy Policy to learn more. By continuing to use the site, you agree to this use of cookies and data.

Hourly Weather Oktyabrsk

Today, 11 July, Saturday

Time Temperature Precipitation Wind Pressure Humidity
00:00 +17°C° 0 mm 5 mps 747 mmHg 94%
01:00 +17°C° 0 mm 5 mps 748 mmHg 95%
02:00 +17°C° 0 mm 5 mps 748 mmHg 95%
03:00 +17°C° 0.1 mm 5 mps 748 mmHg 95%
04:00 +17°C° 0.1 mm 6 mps 747 mmHg 96%
05:00 +17°C° 0.1 mm 6 mps 747 mmHg 96%
06:00 +20°C° 0.2 mm 6 mps 747 mmHg 93%
07:00 +21°C° 0.2 mm 6 mps 747 mmHg 91%
08:00 +22°C° 0 mm 7 mps 748 mmHg 89%
09:00 +23°C° 0.2 mm 6 mps 748 mmHg 86%
10:00 +24°C° 0.2 mm 6 mps 748 mmHg 83%
11:00 +26°C° 0.2 mm 6 mps 748 mmHg 80%
12:00 +26°C° 0.9 mm 5 mps 748 mmHg 79%
13:00 +26°C° 0.9 mm 5 mps 748 mmHg 78%
14:00 +27°C° 0.9 mm 4 mps 749 mmHg 77%
15:00 +26°C° 1.5 mm 4 mps 749 mmHg 79%
16:00 +26°C° 1.5 mm 3 mps 749 mmHg 81%
17:00 +25°C° 1.5 mm 3 mps 749 mmHg 83%
18:00 +24°C° 0.6 mm 3 mps 749 mmHg 85%
19:00 +21°C° 0.6 mm 3 mps 749 mmHg 88%
20:00 +20°C° 0.6 mm 3 mps 749 mmHg 90%
21:00 +19°C° 0.8 mm 3 mps 749 mmHg 91%
22:00 +18°C° 0.8 mm 3 mps 749 mmHg 92%
23:00 +17°C° 0.8 mm 3 mps 749 mmHg 93%

Tomorrow, 12 July, Sunday

Time Temperature Precipitation Wind Pressure Humidity
00:00 +15°C° 1.2 mm 4 mps 749 mmHg 93%
01:00 +14°C° 1.2 mm 4 mps 749 mmHg 94%
02:00 +14°C° 1.2 mm 5 mps 749 mmHg 94%
03:00 +13°C° 0.3 mm 5 mps 749 mmHg 94%
04:00 +13°C° 0.3 mm 4 mps 749 mmHg 94%
05:00 +13°C° 0.3 mm 3 mps 748 mmHg 94%
06:00 +13°C° 0.3 mm 4 mps 749 mmHg 94%
07:00 +13°C° 0.3 mm 4 mps 749 mmHg 93%
08:00 +14°C° 0.3 mm 4 mps 749 mmHg 93%
09:00 +14°C° 0.1 mm 4 mps 749 mmHg 93%
10:00 +14°C° 0.1 mm 5 mps 749 mmHg 92%
11:00 +14°C° 0.1 mm 5 mps 749 mmHg 91%
12:00 +15°C° 0 mm 5 mps 749 mmHg 89%
13:00 +15°C° 0 mm 5 mps 749 mmHg 87%
14:00 +15°C° 0 mm 6 mps 749 mmHg 85%
15:00 +14°C° 0 mm 6 mps 749 mmHg 87%
16:00 +14°C° 0 mm 6 mps 749 mmHg 88%
17:00 +13°C° 0 mm 6 mps 749 mmHg 90%
18:00 +11°C° 0.1 mm 6 mps 749 mmHg 90%
19:00 +11°C° 0.1 mm 6 mps 749 mmHg 91%
20:00 +10°C° 0.1 mm 5 mps 749 mmHg 92%
21:00 +10°C° 0.6 mm 5 mps 749 mmHg 93%
22:00 +10°C° 0.6 mm 5 mps 748 mmHg 94%
23:00 +10°C° 0.6 mm 5 mps 748 mmHg 96%

Day after tomorrow, 13 July, Monday

Time Temperature Precipitation Wind Pressure Humidity
00:00 +11°C° 0.3 mm 4 mps 748 mmHg 95%
01:00 +11°C° 0.3 mm 4 mps 748 mmHg 95%
02:00 +10°C° 0.3 mm 4 mps 748 mmHg 95%
03:00 +10°C° 0 mm 4 mps 748 mmHg 94%
04:00 +10°C° 0 mm 3 mps 748 mmHg 93%
05:00 +10°C° 0 mm 3 mps 748 mmHg 93%
06:00 +11°C° 0 mm 4 mps 748 mmHg 91%
07:00 +12°C° 0 mm 4 mps 748 mmHg 89%
08:00 +13°C° 0 mm 4 mps 748 mmHg 88%
09:00 +15°C° 0.1 mm 4 mps 748 mmHg 84%
10:00 +17°C° 0.1 mm 4 mps 748 mmHg 80%
11:00 +18°C° 0.1 mm 4 mps 748 mmHg 76%
12:00 +19°C° 0.2 mm 4 mps 748 mmHg 74%
13:00 +19°C° 0.2 mm 4 mps 747 mmHg 72%
14:00 +20°C° 0.2 mm 4 mps 747 mmHg 70%
15:00 +20°C° 0.1 mm 4 mps 747 mmHg 72%
16:00 +19°C° 0.1 mm 4 mps 747 mmHg 74%
17:00 +19°C° 0.1 mm 3 mps 746 mmHg 76%
18:00 +18°C° 0.1 mm 3 mps 746 mmHg 80%
19:00 +17°C° 0.1 mm 3 mps 746 mmHg 84%
20:00 +16°C° 0.1 mm 3 mps 746 mmHg 88%
21:00 +14°C° 0 mm 3 mps 746 mmHg 89%
22:00 +13°C° 0 mm 3 mps 746 mmHg 91%
23:00 +12°C° 0 mm 4 mps 746 mmHg 92%

14 July, Tuesday

Time Temperature Precipitation Wind Pressure Humidity
00:00 +12°C° 0 mm 3 mps 746 mmHg 91%
01:00 +11°C° 0 mm 3 mps 746 mmHg 90%
02:00 +11°C° 0 mm 3 mps 747 mmHg 89%
03:00 +11°C° 0 mm 3 mps 747 mmHg 90%
04:00 +11°C° 0 mm 3 mps 747 mmHg 90%
05:00 +10°C° 0 mm 3 mps 747 mmHg 90%
06:00 +12°C° 0 mm 3 mps 747 mmHg 85%
07:00 +14°C° 0 mm 3 mps 747 mmHg 81%
08:00 +17°C° 0 mm 4 mps 747 mmHg 77%
09:00 +18°C° 0 mm 4 mps 747 mmHg 73%
10:00 +19°C° 0 mm 4 mps 747 mmHg 68%
11:00 +20°C° 0 mm 4 mps 747 mmHg 64%
12:00 +21°C° 0 mm 4 mps 747 mmHg 63%
13:00 +21°C° 0 mm 4 mps 747 mmHg 63%
14:00 +21°C° 0 mm 4 mps 747 mmHg 62%
15:00 +21°C° 0 mm 4 mps 747 mmHg 64%
16:00 +21°C° 0 mm 4 mps 747 mmHg 67%
17:00 +21°C° 0 mm 3 mps 747 mmHg 69%
18:00 +19°C° 0 mm 3 mps 747 mmHg 74%
19:00 +18°C° 0 mm 3 mps 747 mmHg 79%
20:00 +17°C° 0 mm 3 mps 747 mmHg 84%
21:00 +16°C° 0 mm 3 mps 747 mmHg 86%
22:00 +14°C° 0 mm 3 mps 747 mmHg 87%
23:00 +13°C° 0 mm 3 mps 747 mmHg 88%

15 July, Wednesday

Time Temperature Precipitation Wind Pressure Humidity
00:00 +12°C° 0 mm 3 mps 747 mmHg 89%
01:00 +12°C° 0 mm 3 mps 747 mmHg 89%
02:00 +11°C° 0 mm 3 mps 747 mmHg 90%
03:00 +11°C° 0 mm 3 mps 747 mmHg 89%
04:00 +11°C° 0 mm 3 mps 747 mmHg 88%
05:00 +11°C° 0 mm 3 mps 747 mmHg 87%
06:00 +13°C° 0 mm 3 mps 747 mmHg 82%
07:00 +14°C° 0 mm 3 mps 747 mmHg 78%
08:00 +17°C° 0 mm 4 mps 747 mmHg 74%
09:00 +18°C° 0 mm 4 mps 747 mmHg 70%
10:00 +19°C° 0 mm 4 mps 747 mmHg 66%
11:00 +20°C° 0 mm 4 mps 747 mmHg 62%
12:00 +21°C° 0 mm 4 mps 747 mmHg 62%
13:00 +21°C° 0 mm 4 mps 746 mmHg 61%
14:00 +21°C° 0 mm 4 mps 746 mmHg 61%
15:00 +21°C° 0 mm 4 mps 746 mmHg 63%
16:00 +21°C° 0 mm 3 mps 746 mmHg 65%
17:00 +21°C° 0 mm 3 mps 746 mmHg 68%
18:00 +19°C° 0 mm 3 mps 746 mmHg 72%
19:00 +18°C° 0 mm 3 mps 746 mmHg 76%
20:00 +16°C° 0 mm 2 mps 746 mmHg 80%
21:00 +16°C° 0 mm 2 mps 746 mmHg 81%
22:00 +15°C° 0 mm 2 mps 745 mmHg 81%
23:00 +14°C° 0 mm 2 mps 745 mmHg 81%

16 July, Thursday

Time Temperature Precipitation Wind Pressure Humidity
00:00 +13°C° 0 mm 2 mps 745 mmHg 82%
01:00 +13°C° 0 mm 2 mps 745 mmHg 82%
02:00 +13°C° 0 mm 2 mps 745 mmHg 83%
03:00 +13°C° 0 mm 2 mps 745 mmHg 84%
04:00 +12°C° 0 mm 2 mps 745 mmHg 84%
05:00 +12°C° 0 mm 2 mps 744 mmHg 85%
06:00 +14°C° 0 mm 2 mps 744 mmHg 81%
07:00 +16°C° 0 mm 2 mps 744 mmHg 77%
08:00 +18°C° 0 mm 2 mps 744 mmHg 73%
09:00 +19°C° 0 mm 2 mps 744 mmHg 68%
10:00 +21°C° 0 mm 2 mps 743 mmHg 64%
11:00 +23°C° 0 mm 2 mps 743 mmHg 59%
12:00 +23°C° 0 mm 2 mps 743 mmHg 57%
13:00 +24°C° 0 mm 2 mps 742 mmHg 55%
14:00 +24°C° 0 mm 1 mps 742 mmHg 53%
15:00 +24°C° 0 mm 1 mps 742 mmHg 55%
16:00 +24°C° 0 mm 1 mps 741 mmHg 58%
17:00 +24°C° 0 mm 1 mps 741 mmHg 60%
18:00 +22°C° 0.2 mm 1 mps 741 mmHg 67%
19:00 +21°C° 0.2 mm 1 mps 741 mmHg 74%
20:00 +18°C° 0.2 mm 2 mps 741 mmHg 80%
21:00 +17°C° 0 mm 2 mps 741 mmHg 84%
22:00 +17°C° 0 mm 2 mps 741 mmHg 88%
23:00 +16°C° 0 mm 2 mps 740 mmHg 91%
Show more